Regional Weather Roundup
Issued by NWS

Home | Current Version | Previous Version | Graphics & Text | Print | Product List | Glossary On
Versions: 1 2 3 4 5 6 7 8 9 10 11 12 13 14 15 16 17 18 19 20 21 22 23 24 25 26 27 28 29 30 31 32 33 34 35 36 37 38 39 40 41 42 43 44 45 46 47 48 49 50
000
ASUS43 KLOT 271304
RWRIL

ILLINOIS REGIONAL WEATHER ROUNDUP
NATIONAL WEATHER SERVICE CHICAGO/ROMEOVILLE IL
800 AM CDT SAT MAY 27 2017

NOTE: "FAIR" INDICATES FEW OR NO CLOUDS BELOW 12,000 FEET WITH NO
SIGNIFICANT WEATHER AND/OR OBSTRUCTIONS TO VISIBILITY.

* THESE STATIONS ARE NOT UNDER NWS QUALITY CONTROL. THEY ALSO MAY NOT
  REPORT WEATHER SUCH AS PRECIPITATION OR FOG.

ILZ001-002-007-009-015-016-024-271400-
NORTHWEST ILLINOIS

CITY           SKY/WX    TMP DP  RH WIND       PRES   REMARKS
MOLINE         FOG       58  56  93 NE3       29.92R VSB 1/2
STERLING*      CLOUDY    56  56 100 E5        29.93S FOG
SAVANNA*       CLOUDY    56  55  94 CALM      29.91F
$$

ILZ003-004-008-010-011-017-018-271400-
NORTH CENTRAL ILLINOIS

CITY           SKY/WX    TMP DP  RH WIND       PRES   REMARKS
ROCKFORD       CLOUDY    58  54  86 CALM      29.93F
FREEPORT*      SUNNY     56  56  99 SE3       29.93F
ROCHELLE*      CLOUDY    57  55  92 CALM      29.93S
DE KALB*       SUNNY     59  56  90 NE3       29.93S
PERU*          CLOUDY    56  55  93 NE5       29.93R FOG
$$

ILZ005-006-012>014-019>023-271400-
NORTHEAST ILLINOIS

CITY           SKY/WX    TMP DP  RH WIND       PRES   REMARKS
CHICAGO-OHARE  MOSUNNY   57  51  80 NE7       29.92R
CHICAGO-MIDWAY PTSUNNY   61  52  72 NE7       29.91S
AURORA         MOSUNNY   60  55  83 E5        29.93R
LANSING*       PTSUNNY   59  56  90 N3        29.92S
JOLIET*        CLOUDY    59  58  94 CALM      29.92S FOG
WAUKEGAN       SUNNY     58  54  86 E5        29.92F
DUPAGE AIRPORT SUNNY     58  55  90 NE6       29.92S
KANKAKEE*      CLOUDY    60  60  98 CALM      29.92R FOG
WHEELING       PTSUNNY   56  55  97 N3        29.94R
MORRIS*        CLOUDY    57  55  92 CALM      29.92R FOG
ROMEOVILLE*    PTSUNNY   59  59  99 CALM      29.92S
$$

LMZ740>746-271400-
SOUTHERN LAKE MICHIGAN

STATION/POSITION SKY/WX   TEMP    WIND        PRES    VSBY  WAVE
                          AIR SEA DIR/SP/G                  HT/PER
                          (F)     (DEG/KT/KT) (MB)    (MI)  (FT/S)
SOUTHERN BUOY              49 46   50/  4/  4 1012.7          0
WILMETTE HARBOR            49 52                N/A           1
HARRISON CRIB              53     330/  9/ 10   N/A
BURNHAM HARBOR             58      10/  6/  9   N/A
CALUMET HARBOR             56     330/  5/  7 1013.1R
BURNS HARBOR               53      20/  3/  5 1014.2R
MICHIGAN CITY              53      10/  5/  6   N/A
MICHIGAN CITY 6N           52 53  350/  8/ 10   N/A           1/ 2
ST. JOSEPH                 57 58   50/  8/ 10 1013.0R         1
$$

ILZ025>027-034>036-040-047-049-050-058-095>099-271400-
WEST-CENTRAL ILLINOIS

CITY           SKY/WX    TMP DP  RH WIND       PRES   REMARKS
QUINCY         PTSUNNY   62  61  96 NE8       29.89S FOG
GALESBURG*     FOG       57  57 100 NE6       29.91R VSB 3/4
MACOMB*        FOG       58  58 100 E6        29.94R VSB<1/4
JACKSONVILLE*  CLOUDY    60  60  99 NE8       29.90R FOG
PITTSFIELD*    SUNNY     65  62  93 E5        29.91R
$$

ILZ028>032-037-038-041>044-048-051>054-059>061-271400-
CENTRAL ILLINOIS

CITY           SKY/WX    TMP DP  RH WIND       PRES   REMARKS
PONTIAC        CLOUDY    59  59  98 NE6       29.93S FOG
BLOOMINGTON    CLOUDY    60  59  96 N9        29.92R FOG
DECATUR        CLOUDY    64  61  90 NE7       29.89F
PEORIA         CLOUDY    60  60 100 E5        29.92R FOG
LACON*         CLOUDY    58  58 100 CALM      29.92R FOG
LINCOLN*       MOSUNNY   65  62  89 N8        29.90F
SPRINGFIELD    CLOUDY    62  62 100 NE10      29.90S FOG
TAYLORVILLE    CLOUDY    60  60 100 NE6       29.91R FOG
$$

ILZ033-039-045-046-055>057-062-063-271400-
EAST-CENTRAL ILLINOIS

CITY           SKY/WX    TMP DP  RH WIND       PRES   REMARKS
CHAMPAIGN      CLOUDY    63  60  90 N12       29.90R FOG
RANTOUL*       FOG       61  61  99 N7        29.91S VSB 1/4
MATTOON        FOG       62  62 100 N7        29.89R VSB 3/4
PARIS*         CLOUDY    63  63  99 N5        29.89F FOG
$$

ILZ079-100>102-271400-
SOUTHWEST ILLINOIS

CITY           SKY/WX    TMP DP  RH WIND       PRES   REMARKS
ALTON          MOSUNNY   68  64  88 VRB3      29.88F
CAHOKIA*       SUNNY     73  66  78 NE6       29.86S
SPARTA*        PTSUNNY   69  68  94 E3        29.89R
$$

ILZ064>066-069>071-074>076-080>082-084>086-088>090-092>094-271400-
SOUTH-CENTRAL ILLINOIS

CITY           SKY/WX    TMP DP  RH WIND       PRES   REMARKS
CARBONDALE     CLOUDY    70  70 100 CALM      29.87S FOG
CAIRO*         CLOUDY    71  70  96 CALM      29.85F
EFFINGHAM*     SUNNY     70  67  90 CALM      29.89S
MARION         PTSUNNY   72  70  94 CALM      29.88R
MT. VERNON       N/A     70  68  93 CALM      29.87S
CENTRALIA*     CLOUDY    71  68  90 NE5       29.86F
SALEM*         CLOUDY    71  67  86 N8        29.86F
$$

ILZ067-068-072-073-078-083-087-091-271400-
SOUTHEAST ILLINOIS

CITY           SKY/WX    TMP DP  RH WIND       PRES   REMARKS
LAWRENCEVILLE  CLOUDY    70  67  90 W3        29.88S FOG
FLORA*         MOSUNNY   72  67  85 N5        29.88S
FAIRFIELD*     PTSUNNY   70  68  94 N3        29.85F
HARRISBURG*    PTSUNNY   69  69  99 CALM      29.88R FOG
ROBINSON*      MOSUNNY   70  65  85 CALM      29.88S
CARMI*         PTSUNNY   69  69  99 CALM      29.86F FOG
$$

ABBREVIATIONS USED IN REMARKS
   TC - TEMPERATURE IN CELSIUS
  WCI - WIND CHILL INDEX
   HX - HEAT INDEX
  VSB - VISIBILITY
$$





USA.gov is the U.S. government's official web portal to all federal, state and local government web resources and services.